Location: Unspecified
(54.1780°N, 0.0000°E)
Time: 10:54:16
(UTC+00:00)

Tiros 1 - Pass Details

Date: 26 June 2019
Orbit: 630 x 664 km, 48.4° (Epoch: 17 August)

Event Time Altitude Azimuth Distance (km) Brightness Sun altitude
Rises 23:50:46 0° 251° (WSW) 2,952 10.4 -12.4°
Reaches altitude 10° 23:53:13 10° 244° (WSW) 2,037 9.5 -12.5°
Maximum altitude 23:57:36 41° 175° (S) 935 7.5 -12.5°
Drops below altitude 10° 00:01:57 10° 106° (ESE) 2,020 9.5 -12.5°
Sets 00:04:21 0° 99° (E) 2,925 10.4 -12.5°
